{"data":{"norad_id":60435,"epoch":"2026-09-21T15:27:35.203680Z","epoch_age_seconds":89550,"freshness":"FRESH","line1":"1 60435U 24144L   26264.64415745  .00000190  00000+0  16766-4 0  9998","line2":"2 60435  53.1623  22.4842 0001533  75.7310 284.3863 15.34386018119371","mean_motion":15.34386018,"eccentricity":0.0001533,"inclination_deg":53.1623,"raan_deg":22.4842,"arg_perigee_deg":75.731,"mean_anomaly_deg":284.3863,"bstar":1.6766e-5,"rev_number":11937,"period_min":93.848613263367,"perigee_km":461.69609079362,"apogee_km":463.79350515288,"semimajor_km":6840.8817979733,"source":"CELESTRAK","updated_at":"2026-09-22T09:00:49.235395Z"}}